Location: Treviso
(45.6669°N, 12.2430°E)
Time: 14:49:38
(UTC+01:00)

Envisat - Pass Details

Date: 05 December 2022
Orbit: 763 x 765 km, 98.2° (Epoch: 02 February)

Event Time Altitude Azimuth Distance (km) Brightness Sun altitude
Rises 05:44:56 0° 1° (N) 3,244 6.1 -18.6°
Reaches altitude 10° 05:47:41 10° 347° (NNW) 2,313 5.2 -18.1°
Enters shadow 05:48:49 15° 337° (NNW) 1,996 4.8 -17.9°
